Location: Hungerford
(51.4167°N, 1.5167°W)
Time: 03:04:45
(UTC+00:00)

Cosmos 1892 Rocket - Pass Details

Date: 18 September 2020
Orbit: 605 x 634 km, 82.5° (Epoch: 19 October)

Event Time Altitude Azimuth Distance (km) Brightness Sun altitude
Rises 20:13:47 0° 355° (N) 2,880 7.5 -18.9°
Reaches altitude 10° 20:16:10 10° 4° (N) 1,969 6.4 -19.2°
Enters shadow 20:20:07 36° 69° (ENE) 976 4.2 -19.8°
